Weather History for Monroe, MI

Change the Weather History Date:

Tuesday, November 6, 2012

  Actual Average Record
Temperature  
Mean Temperature 36 °F -  
Max Temperature 42 °F 51 °F 75 °F (1978)
Min Temperature 30 °F 35 °F 21 °F (2010)
Degree Days  
Heating Degree Days 29    
Moisture  
Dew Point 30 °F    
Average Humidity 77    
Maximum Humidity 93    
Minimum Humidity 57    
Precipitation  
Precipitation 0.00 in - - ()
Sea Level Pressure  
Sea Level Pressure 30.05 in    
Wind  
Wind Speed 2 mph (ENE)    
Max Wind Speed 10 mph    
Max Gust Speed -    
Visibility 10 miles    
Events      
Averages and records for this station are not official NWS values.
T = Trace of Precipitation, MM = Missing Value Source: NWS Daily Summary

Daily Weather History Graph

Daily Weather History Graph

Search for Another Location

Airport:

Trip Planner

Search our weather history database for the weather conditions in past years. The results will help you decide how hot, cold, wet, or windy it might be!

Date:

Astronomy

Nov. 06, 2012 Rise Set
Actual Time 7:12 AM EST 5:21 PM EST
Civil Twilight 6:43 AM EST 5:50 PM EST
Nautical Twilight 6:10 AM EST 6:23 PM EST
Astronomical Twilight 5:37 AM EST 6:56 PM EST
Moon No Moon Rise 1:03 PM EST (11/6)
Length of Visible Light 11h 06m
Length of Day
10h 08m
Waning Gibbous, 53% of the Moon is Illuminated
Nov 6
Waning Gibbous
Nov 6
Last Quarter
Nov 13
New
Nov 20
First Quarter
Nov 28
Full

Hourly Weather History & Observations

Time (EST) Temp. Windchill Dew Point Humidity Pressure Visibility Wind Dir Wind Speed Gust Speed Precip Events Conditions
12:14 AM 30.2 °F - 26.6 °F 86% 30.15 in 10.0 mi Calm Calm - N/A   Overcast
12:35 AM 30.2 °F - 28.4 °F 93% 30.14 in 10.0 mi Calm Calm - N/A   Overcast
12:55 AM 32.0 °F - 28.4 °F 87% 30.14 in 7.0 mi Calm Calm - N/A   Overcast
1:15 AM 32.0 °F - 30.2 °F 93% 30.13 in 10.0 mi Calm Calm - N/A   Overcast
1:35 AM 32.0 °F 27.5 °F 28.4 °F 87% 30.14 in 7.0 mi North 4.6 mph - N/A   Overcast
1:55 AM 32.0 °F 27.5 °F 30.2 °F 93% 30.13 in 7.0 mi North 4.6 mph - N/A   Overcast
2:15 AM 33.8 °F 29.6 °F 30.2 °F 87% 30.13 in 10.0 mi NNE 4.6 mph - N/A   Overcast
2:35 AM 33.8 °F 30.8 °F 30.2 °F 87% 30.12 in 10.0 mi NNE 3.5 mph - N/A   Overcast
2:55 AM 35.6 °F - 30.2 °F 81% 30.12 in 10.0 mi Calm Calm - N/A   Overcast
3:16 AM 33.8 °F 30.8 °F 30.2 °F 87% 30.12 in 10.0 mi NNE 3.5 mph - N/A   Overcast
3:31 AM 35.6 °F 31.7 °F 30.2 °F 81% 30.11 in 10.0 mi NE 4.6 mph - N/A   Overcast
3:51 AM 33.8 °F - 30.2 °F 87% 30.10 in 10.0 mi Calm Calm - N/A   Overcast
4:11 AM 33.8 °F - 30.2 °F 87% 30.10 in 10.0 mi Calm Calm - N/A   Overcast
4:31 AM 33.8 °F - 30.2 °F 87% 30.09 in 10.0 mi Calm Calm - N/A   Mostly Cloudy
4:51 AM 33.8 °F - 28.4 °F 81% 30.10 in 10.0 mi Calm Calm - N/A   Mostly Cloudy
5:11 AM 32.0 °F 27.5 °F 30.2 °F 93% 30.10 in 10.0 mi North 4.6 mph - N/A   Overcast
5:31 AM 33.8 °F - 30.2 °F 87% 30.09 in 10.0 mi Calm Calm - N/A   Overcast
5:51 AM 35.6 °F - 30.2 °F 81% 30.09 in 10.0 mi Calm Calm - N/A   Overcast
6:11 AM 35.6 °F - 30.2 °F 81% 30.09 in 10.0 mi Calm Calm - N/A   Overcast
6:32 AM 35.6 °F - 30.2 °F 81% 30.09 in 10.0 mi Calm Calm - N/A   Overcast
6:52 AM 35.6 °F - 30.2 °F 81% 30.08 in 10.0 mi Calm Calm - N/A   Overcast
7:12 AM 33.8 °F - 30.2 °F 87% 30.09 in 10.0 mi Calm Calm - N/A   Overcast
7:32 AM 35.6 °F - 30.2 °F 81% 30.09 in 10.0 mi Calm Calm - N/A   Overcast
7:52 AM 35.6 °F - 32.0 °F 87% 30.09 in 7.0 mi Calm Calm - N/A   Overcast
8:12 AM 35.6 °F - 32.0 °F 87% 30.10 in 10.0 mi Calm Calm - N/A   Overcast
8:32 AM 35.6 °F - 32.0 °F 87% 30.10 in 10.0 mi Calm Calm - N/A   Overcast
8:52 AM 37.4 °F - 30.2 °F 75% 30.10 in 10.0 mi Calm Calm - N/A   Overcast
9:12 AM 37.4 °F - 28.4 °F 70% 30.11 in 10.0 mi Calm Calm - N/A   Overcast
9:32 AM 37.4 °F - 28.4 °F 70% 30.11 in 10.0 mi Calm Calm - N/A   Overcast
9:53 AM 37.4 °F - 28.4 °F 70% 30.11 in 10.0 mi Calm Calm - N/A   Overcast
10:13 AM 37.4 °F - 28.4 °F 70% 30.10 in 10.0 mi Calm Calm - N/A   Overcast
10:33 AM 39.2 °F - 28.4 °F 65% 30.10 in 10.0 mi Calm Calm - N/A   Overcast
10:53 AM 39.2 °F - 28.4 °F 65% 30.09 in 10.0 mi Calm Calm - N/A   Overcast
11:13 AM 41.0 °F 39.0 °F 28.4 °F 61% 30.09 in 10.0 mi SSE 3.5 mph - N/A   Overcast
11:33 AM 41.0 °F 37.1 °F 28.4 °F 61% 30.08 in 10.0 mi South 5.8 mph - N/A   Overcast
11:53 AM 41.0 °F 39.0 °F 28.4 °F 61% 30.07 in 10.0 mi SSE 3.5 mph - N/A   Overcast
12:13 PM 41.0 °F 37.1 °F 28.4 °F 61% 30.06 in 10.0 mi ESE 5.8 mph - N/A   Overcast
12:33 PM 42.8 °F 40.1 °F 28.4 °F 57% 30.05 in 10.0 mi ESE 4.6 mph - N/A   Overcast
12:54 PM 42.8 °F 37.5 °F 28.4 °F 57% 30.04 in 10.0 mi ESE 9.2 mph - N/A   Overcast
1:34 PM 41.0 °F 35.2 °F 28.4 °F 61% 30.03 in 10.0 mi ESE 9.2 mph - N/A   Overcast
1:54 PM 41.0 °F 34.7 °F 30.2 °F 65% 30.03 in 10.0 mi East 10.4 mph - N/A   Overcast
2:14 PM 42.8 °F 38.0 °F 30.2 °F 61% 30.02 in 10.0 mi East 8.1 mph - N/A   Mostly Cloudy
2:34 PM 42.8 °F 40.1 °F 30.2 °F 61% 30.01 in 10.0 mi East 4.6 mph - N/A   Mostly Cloudy
2:54 PM 42.8 °F 38.6 °F 28.4 °F 57% 30.01 in 10.0 mi ESE 6.9 mph - N/A   Overcast
3:14 PM 41.0 °F 38.0 °F 28.4 °F 61% 30.01 in 10.0 mi ESE 4.6 mph - N/A   Mostly Cloudy
3:34 PM 41.0 °F 38.0 °F 30.2 °F 65% 30.00 in 10.0 mi ESE 4.6 mph - N/A   Mostly Cloudy
3:55 PM 41.0 °F 35.8 °F 30.2 °F 65% 30.01 in 10.0 mi East 8.1 mph - N/A   Mostly Cloudy
4:15 PM 41.0 °F 36.4 °F 30.2 °F 65% 30.00 in 10.0 mi ESE 6.9 mph - N/A   Mostly Cloudy
4:35 PM 41.0 °F 35.2 °F 30.2 °F 65% 29.99 in 10.0 mi ESE 9.2 mph - N/A   Overcast
5:15 PM 39.2 °F - 30.2 °F 70% 29.99 in 10.0 mi Calm Calm - N/A   Mostly Cloudy
5:35 PM 39.2 °F - 30.2 °F 70% 29.99 in 10.0 mi Calm Calm - N/A   Mostly Cloudy
5:55 PM 37.4 °F - 30.2 °F 75% 29.99 in 10.0 mi Calm Calm - N/A   Mostly Cloudy
6:15 PM 35.6 °F - 30.2 °F 81% 29.99 in 10.0 mi Calm Calm - N/A   Mostly Cloudy
6:35 PM 37.4 °F - 30.2 °F 75% 30.00 in 10.0 mi Calm Calm - N/A   Mostly Cloudy
6:55 PM 35.6 °F - 30.2 °F 81% 30.00 in 10.0 mi Calm Calm - N/A   Mostly Cloudy
7:16 PM 37.4 °F - 30.2 °F 75% 29.99 in 10.0 mi Calm Calm - N/A   Scattered Clouds
7:31 PM 35.6 °F - 30.2 °F 81% 29.99 in 10.0 mi Calm Calm - N/A   Scattered Clouds
7:51 PM 35.6 °F - 30.2 °F 81% 29.99 in 10.0 mi Calm Calm - N/A   Clear
8:31 PM 33.8 °F - 30.2 °F 87% 29.99 in 10.0 mi Calm Calm - N/A   Scattered Clouds
8:51 PM 35.6 °F 31.7 °F 30.2 °F 81% 29.99 in 10.0 mi NE 4.6 mph - N/A   Mostly Cloudy
9:11 PM 35.6 °F 31.7 °F 30.2 °F 81% 29.99 in 10.0 mi NE 4.6 mph - N/A   Mostly Cloudy
9:31 PM 35.6 °F 31.7 °F 32.0 °F 87% 29.99 in 10.0 mi NE 4.6 mph - N/A   Mostly Cloudy
9:51 PM 37.4 °F 33.8 °F 32.0 °F 81% 29.98 in 10.0 mi NNE 4.6 mph - N/A   Mostly Cloudy
10:12 PM 37.4 °F 34.9 °F 33.8 °F 87% 29.98 in 10.0 mi NNE 3.5 mph - N/A   Mostly Cloudy
10:32 PM 35.6 °F 32.8 °F 32.0 °F 87% 29.97 in 10.0 mi NE 3.5 mph - N/A   Mostly Cloudy
10:52 PM 35.6 °F 30.7 °F 32.0 °F 87% 29.97 in 10.0 mi NE 5.8 mph - N/A   Mostly Cloudy
11:12 PM 35.6 °F 30.7 °F 32.0 °F 87% 29.96 in 10.0 mi NE 5.8 mph - N/A   Scattered Clouds
11:32 PM 35.6 °F 30.7 °F 32.0 °F 87% 29.96 in 10.0 mi NE 5.8 mph - N/A   Scattered Clouds
11:52 PM 33.8 °F 27.7 °F 30.2 °F 87% 29.96 in 10.0 mi NE 6.9 mph - N/A   Clear